K2EJ-13 Weather Reports


time (UTC)temp
C
wind
direction
speed
KPH
gust
KPH
rain 1hr
cm
rain 24hr
cm
rain mn
cm
humidity
%
barometer
mb
20260510100515 11 0.0 0.0 0.00 0.00 0.00 100 1011.0
20260510095515 11 0.0 0.0 0.00 0.00 0.00 100 1011.0
20260510094515 11 0.0 0.0 0.00 0.00 0.00 100 1010.9
20260510093515 11 0.0 0.0 0.00 0.00 0.00 100 1011.0
20260510092516 11 0.0 0.0 0.00 0.00 0.00 100 1010.9
20260510091616 11 0.0 0.0 0.00 0.00 0.00 100 1010.8
20260510090535 11 0.0 0.0 0.00 0.00 0.00 100 1011.0
20260510085515 11 307 0.0 3.2 0.00 0.00 0.00 100 1010.9
20260510084515 11 0.0 0.0 0.00 0.00 0.00 100 1010.9
20260510083535 11 288 0.0 4.8 0.00 0.00 0.00 100 1010.4
20260510082515 11 317 1.6 8.0 0.00 0.00 0.00 100 1010.9
20260510081515 10 290 3.2 9.7 0.00 0.00 0.00 100 1010.9
20260510080515 11 0.0 0.0 0.00 0.00 0.00 100 1010.4
20260510075636 11 0.0 0.0 0.00 0.00 0.00 100 1010.3
20260510074515 11 0.0 0.0 0.00 0.00 0.00 100 1010.2
20260510073536 11 0.0 0.0 0.00 0.00 0.00 100 1010.1
20260510072515 11 0.0 0.0 0.00 0.00 0.00 100 1010.0
20260510071516 11 0.0 0.0 0.00 0.00 0.00 100 1009.9
20260510070515 11 0.0 0.0 0.00 0.00 0.00 100 1009.8
20260510065535 11 306 0.0 3.2 0.00 0.00 0.00 100 1009.7
20260510064515 11 0.0 0.0 0.00 0.00 0.00 100 1009.5
20260510063515 11 0.0 0.0 0.00 0.00 0.00 100 1009.5
20260510062515 11 0.0 0.0 0.00 0.00 0.00 100 1009.6
20260510061515 11 0.0 0.0 0.00 0.00 0.00 100 1009.5
20260510060515 11 0.0 0.0 0.00 0.00 0.00 100 1009.7
20260510055535 11 0.0 0.0 0.00 0.00 0.00 100 1009.8
20260510054515 11 0.0 0.0 0.00 0.00 0.00 100 1009.9
20260510053515 12 0.0 0.0 0.00 0.00 0.00 100 1009.6
20260510052535 12 0.0 0.0 0.00 0.00 0.00 100 1009.7
20260510051536 12 0.0 0.0 0.00 0.00 0.00 99 1009.7
20260510050535 12 0.0 0.0 0.00 0.00 0.00 99 1009.9
20260510045536 12 0.0 0.0 0.00 0.00 0.00 99 1010.1
20260510044515 12 0.0 0.0 0.00 0.00 0.00 99 1010.1
20260510043515 12 0.0 0.0 0.00 0.00 0.00 99 1010.0
20260510042515 12 0.0 0.0 0.00 0.00 0.00 99 1009.8
20260510041536 12 0.0 0.0 0.00 0.00 0.00 99 1009.9
20260510040535 12 0.0 0.0 0.00 0.00 0.00 99 1009.9
20260510035515 12 0.0 0.0 0.00 0.00 0.00 99 1009.9
20260510034516 12 0.0 0.0 0.00 0.00 0.00 99 1010.0
20260510033535 12 0.0 0.0 0.00 0.00 0.00 99 1009.9
20260510032515 12 0.0 0.0 0.00 0.00 0.00 99 1009.9
20260510031515 13 0.0 0.0 0.00 0.00 0.00 98 1009.9
20260510030515 13 291 0.0 3.2 0.00 0.00 0.00 98 1009.9
20260510025515 13 0.0 0.0 0.00 0.00 0.00 98 1009.9
20260510024515 13 0.0 0.0 0.00 0.00 0.00 98 1009.8
20260510023515 13 0.0 0.0 0.00 0.00 0.00 97 1009.8
20260510022515 13 0.0 0.0 0.00 0.00 0.00 96 1009.8
20260510021515 13 0.0 0.0 0.00 0.00 0.00 96 1009.9
20260510020536 13 0.0 0.0 0.00 0.00 0.00 96 1009.8
20260510015535 14 0.0 0.0 0.00 0.00 0.00 93 1009.8
20260510014515 14 0.0 0.0 0.00 0.00 0.00 92 1009.6
20260510013556 15 0.0 0.0 0.00 0.00 0.00 92 1009.5
20260510012515 15 0.0 0.0 0.00 0.00 0.00 90 1009.3
20260510011515 15 0.0 0.0 0.00 0.00 0.00 89 1009.2
20260510010515 15 0.0 0.0 0.00 0.00 0.00 88 1009.0
20260510005516 15 0.0 0.0 0.00 0.00 0.00 89 1009.0
20260510004515 15 0.0 0.0 0.00 0.00 0.00 88 1008.9
20260510003515 16 0.0 0.0 0.00 0.00 0.00 85 1008.7
20260510002515 16 0.0 0.0 0.00 0.00 0.00 84 1008.8
20260510001516 16 0.0 0.0 0.00 0.00 0.00 83 1008.8
20260510000515 16 0.0 0.0 0.00 0.00 0.00 82 1008.7
20260509235515 17 0.0 0.0 0.00 0.00 0.00 81 1008.7
20260509234515 17 16 0.0 0.0 0.00 0.00 0.00 79 1008.7
20260509233516 17 4 0.0 1.6 0.00 0.00 0.00 78 1008.6
20260509232535 17 0.0 0.0 0.00 0.00 0.00 77 1008.5
20260509231515 18 356 0.0 3.2 0.00 0.00 0.00 76 1008.5
20260509230516 18 30 1.6 4.8 0.00 0.00 0.00 75 1008.5
20260509225536 18 13 0.0 1.6 0.00 0.00 0.00 74 1008.4
20260509224515 18 52 0.0 3.2 0.00 0.00 0.00 72 1008.4
20260509223516 18 79 3.2 9.7 0.00 0.00 0.00 70 1008.3
20260509222515 19 357 3.2 9.7 0.00 0.00 0.00 69 1008.4
20260509221515 19 54 0.0 3.2 0.00 0.00 0.00 68 1008.5
20260509220515 18 52 3.2 6.4 0.00 0.00 0.00 70 1008.6
20260509215515 19 21 3.2 8.0 0.00 0.00 0.00 70 1008.7
20260509214516 19 53 3.2 9.7 0.00 0.00 0.00 70 1008.6
20260509213515 20 355 3.2 9.7 0.00 0.00 0.00 68 1008.6
20260509212515 20 19 3.2 4.8 0.00 0.00 0.00 69 1008.5
20260509211515 20 31 1.6 6.4 0.00 0.00 0.00 68 1008.5
20260509210515 20 36 3.2 8.0 0.00 0.00 0.00 68 1008.4
20260509205515 20 24 1.6 6.4 0.00 0.00 0.00 70 1008.4
20260509204535 19 64 3.2 8.0 0.00 0.00 0.00 70 1008.3
20260509203515 19 34 0.0 3.2 0.00 0.00 0.00 68 1008.4
20260509202535 20 18 3.2 8.0 0.00 0.00 0.00 66 1008.6
20260509201515 20 53 1.6 4.8 0.00 0.00 0.00 66 1008.7
20260509200536 21 98 0.0 3.2 0.00 0.00 0.00 65 1008.8
20260509195555 20 45 0.0 1.6 0.00 0.00 0.00 66 1008.8
20260509194515 21 22 3.2 4.8 0.00 0.00 0.00 62 1008.8
20260509193515 20 48 4.8 9.7 0.00 0.00 0.00 66 1009.1
20260509192515 19 49 3.2 8.0 0.00 0.00 0.00 71 1009.0
20260509191515 19 337 1.6 9.7 0.00 0.00 0.00 73 1009.1
20260509190515 19 19 4.8 9.7 0.00 0.00 0.00 73 1009.2
20260509185536 19 35 3.2 6.4 0.00 0.00 0.00 78 1009.3
20260509184536 18 11 1.6 4.8 0.00 0.00 0.00 86 1009.5
20260509183516 17 0.0 0.0 0.00 0.00 0.00 89 1009.8
20260509182535 17 0.0 0.0 0.00 0.00 0.00 89 1009.9
20260509181515 17 0.0 0.0 0.00 0.00 0.00 88 1009.9
20260509180516 17 0.0 0.0 0.00 0.00 0.00 85 1010.1
20260509175515 18 0.0 0.0 0.00 0.00 0.00 76 1010.1
20260509174515 18 0.0 0.0 0.00 0.00 0.00 68 1010.2
20260509173515 19 0.0 0.0 0.00 0.00 0.00 63 1010.1
20260509172515 20 303 0.0 3.2 0.00 0.00 0.00 62 1010.3
20260509171515 20 322 0.0 4.8 0.00 0.00 0.00 59 1010.2
20260509170515 21 179 1.6 4.8 0.00 0.00 0.00 61 1010.2
20260509165536 21 162 1.6 9.7 0.00 0.00 0.00 62 1010.3
20260509164515 20 193 3.2 8.0 0.00 0.00 0.00 64 1010.3
20260509163515 19 103 1.6 6.4 0.00 0.00 0.00 69 1010.4
20260509162515 19 124 1.6 3.2 0.00 0.00 0.00 69 1010.5
20260509161515 19 0.0 0.0 0.00 0.00 0.00 65 1010.5
20260509160515 19 201 1.6 6.4 0.00 0.00 0.00 65 1010.4
20260509155515 18 61 0.0 4.8 0.00 0.00 0.00 67 1010.3
20260509154515 19 95 1.6 4.8 0.00 0.00 0.00 64 1010.5
20260509153515 19 186 0.0 6.4 0.00 0.00 0.00 63 1010.6
20260509152515 18 177 3.2 11.3 0.00 0.00 0.00 63 1010.8
20260509151516 18 189 1.6 11.3 0.00 0.00 0.00 64 1011.0
20260509150515 18 186 3.2 11.3 0.00 0.00 0.00 65 1011.1
20260509145515 18 187 1.6 6.4 0.00 0.00 0.00 64 1011.2
20260509144516 18 201 0.0 6.4 0.00 0.00 0.00 65 1011.2
20260509143515 18 170 3.2 12.9 0.00 0.00 0.00 69 1011.1
20260509142556 18 194 3.2 14.5 0.00 0.00 0.00 72 1011.1
20260509141515 18 171 3.2 9.7 0.00 0.00 0.00 75 1011.1
20260509140535 18 186 1.6 6.4 0.00 0.00 0.00 76 1011.0
20260509135515 18 194 1.6 11.3 0.00 0.00 0.00 78 1011.0
20260509134515 17 160 6.4 14.5 0.00 0.00 0.00 78 1011.0
20260509133515 17 178 4.8 16.1 0.00 0.00 0.00 79 1011.0
20260509132515 17 188 4.8 12.9 0.00 0.00 0.00 77 1010.9
20260509131515 17 158 3.2 14.5 0.00 0.00 0.00 81 1011.0
20260509130515 16 178 4.8 11.3 0.00 0.00 0.00 83 1011.1
20260509125535 16 192 6.4 19.3 0.00 0.00 0.00 84 1011.1
20260509124516 16 184 6.4 14.5 0.00 0.00 0.00 83 1011.1
20260509123515 16 182 6.4 14.5 0.00 0.00 0.00 83 1011.1
20260509122515 16 168 4.8 17.7 0.00 0.00 0.00 83 1011.0
20260509121515 16 185 4.8 14.5 0.00 0.00 0.00 83 1011.1
20260509120515 16 195 6.4 17.7 0.00 0.00 0.00 83 1011.2
20260509115536 16 177 6.4 19.3 0.00 0.00 0.00 83 1011.1
20260509114515 16 195 4.8 22.5 0.00 0.00 0.00 83 1011.1
20260509113515 15 184 6.4 14.5 0.00 0.00 0.00 83 1011.1
20260509112536 15 178 6.4 17.7 0.00 0.00 0.00 83 1010.9
20260509111515 15 181 4.8 11.3 0.00 0.00 0.00 83 1010.8
20260509110515 15 174 3.2 14.5 0.00 0.00 0.00 84 1010.8
20260509105515 15 180 6.4 16.1 0.00 0.00 0.00 84 1010.8
20260509104536 15 178 1.6 8.0 0.00 0.00 0.00 84 1010.8
20260509103535 15 196 1.6 9.7 0.00 0.00 0.00 83 1010.7
20260509102516 15 197 1.6 8.0 0.00 0.00 0.00 82 1010.5
20260509101515 15 184 3.2 12.9 0.00 0.00 0.00 83 1010.6